Богота

Colombia     0˚00′00″N   74˚06′00″W
temp.,
°C
wind,
m/s
gust,
m/s
humid.,
%
clouds,
%
prec.,
mm/h
press.,
hPa
HPBL,
m
29 november, sun
sun2901:00+22˚nw1599100 13.5 1011202
04:00+21˚n1499100 0.4 1010152
07:00+22˚n159776 0.4 1012266
10:00+26˚n1371100 0.0 1013614
13:00+32˚n115097 0.0 10091458
16:00+30˚nne1260100 0.0 1006867
19:00+25˚ene1281100 0.0 100837
22:00+24˚ne128798 0.0 101123
30 november, mon
mon3001:00+23˚ne118899 0.0 100925
04:00+21˚nnw1199100 3.5 100924
07:00+22˚nnw0199100 6.1 101184
10:00+25˚wsw0189100 0.3 1013354
13:00+29˚ne1369100 1.6 1008902
16:00+27˚n1387100 3.3 1006321
19:00+23˚sw0096100 4.5 100824
22:00+23˚s1198100 6.3 101033
1 december, tue
tue101:00+22˚sse1299100 6.6 100962
04:00+22˚se1199100 0.4 100931
07:00+22˚nw1299100 1.3 1011106
10:00+25˚w139594 3.1 1013305
13:00+28˚nw238570 6.7 1008753
16:00+25˚wsw2696100 6.1 1006290
19:00+23˚wsw1399100 6.6 1008125
22:00+23˚wnw1199100 0.3 101029
2 december, wed
wed201:00+22˚wsw2599100 1.4 1009241
04:00+22˚w01100100 1.9 100832
07:00+22˚wsw12100100 4.2 1011122
10:00+24˚wnw1295100 0.4 1012258
13:00+24˚w1292100 1.7 1010199
16:00+24˚ne129688 1.9 100891
19:00+23˚ne119986 1.9 100933
22:00+22˚nne1299100 0.0 101079
3 december, thu
thu301:00+22˚nne1399100 0.1 1009109
04:00+22˚nne119998 0.0 100830
07:00+22˚ne139999 0.0 1010163
10:00+29˚ne266885 0.0 10121087
13:00+30˚nne267375 1.4 10081291
16:00+31˚nne25552 0.2 10051631
19:00+25˚ene13828 0.3 100869
22:00+23˚ne129142 0.0 101046